Home   Weather   Toulon   Past weeks

Flag for France Past Weather in Toulon, Provence-Alpes-Côte d'Azur, France — Yesterday and Last 2 Weeks

Now
50 °F

Clear.


Feels Like: 46 °F
Forecast: 47 / 61 °F
Wind: 12 mph from Northwest

Location: Hyeres Airport

Current Time: Apr 28, 2017 at 1:10:06 am

Latest Report: Apr 28, 2017 at 12:30 am


Visibility: 10 mi

Pressure: 29.83 "Hg

Humidity: 50%

Dew Point: 32 °F

Location of ToulonLocation

Past Weather in Toulon — Graph

°F

Toulon Temperature Yesterday

Maximum temperature yesterday: 59 °F (at 1:30 pm)
Minimum temperature yesterday: 50 °F (at 11:00 pm)
Average temperature yesterday: 55 °F

High & Low Weather Summary for the Past Weeks

 TemperatureHumidityPressure
High77 °F (Apr 15, 12:30 pm)100% (Apr 13, 5:30 am)30.39 "Hg (Apr 13, 5:30 am)
Low37 °F (Apr 21, 4:00 am)18% (Apr 18, 6:30 pm)29.68 "Hg (Apr 26, 5:30 am)
Average58 °F65%29.98 "Hg
* Reported Apr 13 12:00 am — Apr 28 12:00 am, Toulon, Weather by CustomWeather, © 2017

Note: Actual official high and low records may vary slightly from our data, if they occured in-between our weather recording intervals... More about our weather records

Advertising

Toulon Weather History for the Previous 24 Hours

Scroll right to see more
 ConditionsComfort  
Time TempWeatherWind HumidityBarometerVisibility
12:00 am
Fri, Apr 28
50 °FPassing clouds.13 mph47%29.80 "HgN/A
11:30 pm
Thu, Apr 27
52 °FPassing clouds.14 mph41%29.80 "HgN/A
11:00 pm50 °FPassing clouds.9 mph47%29.80 "HgN/A
10:30 pm52 °FClear.14 mph47%29.80 "Hg10 mi
10:00 pm52 °FPassing clouds.12 mph47%29.80 "HgN/A
9:30 pm52 °FPassing clouds.8 mph54%29.80 "HgN/A
9:00 pm54 °FClear.12 mph51%29.77 "Hg10 mi
8:30 pm54 °FSunny.13 mph51%29.77 "Hg10 mi
8:00 pm55 °FSunny.10 mph51%29.77 "Hg10 mi
7:30 pm57 °FPassing clouds.6 mph55%29.77 "HgN/A
7:00 pm59 °FSunny.1 mph51%29.77 "Hg10 mi
6:30 pm55 °FSunny.3 mph59%29.77 "Hg10 mi
6:00 pm55 °FSunny.2 mph59%29.77 "Hg10 mi
5:30 pm55 °FPassing clouds.6 mph63%29.77 "HgN/A
5:00 pm57 °FPassing clouds.5 mph59%29.77 "HgN/A
4:30 pm57 °FPassing clouds.9 mph63%29.77 "HgN/A
4:00 pm57 °FSunny.8 mph63%29.77 "Hg10 mi
3:30 pm57 °FSunny.7 mph63%29.77 "Hg10 mi
3:00 pm57 °FSunny.8 mph63%29.80 "Hg10 mi
2:30 pm59 °FSunny.3 mph63%29.77 "Hg10 mi
2:00 pm59 °FBroken clouds.3 mph59%29.77 "HgN/A
1:30 pm59 °FOvercast.6 mph63%29.80 "HgN/A
12:30 pm57 °FLight rain. Broken clouds.5 mph63%29.80 "HgN/A
12:00 pm57 °FPartly sunny.3 mph59%29.80 "HgN/A
11:30 am55 °FLight rain. Cloudy.3 mph72%29.80 "HgN/A
11:00 am55 °FLight rain. Cloudy.5 mph67%29.80 "HgN/A
10:30 am57 °FMostly cloudy.2 mph59%29.77 "HgN/A
10:00 am55 °FPassing clouds.3 mph67%29.77 "HgN/A
9:30 am54 °FPassing clouds.5 mph77%29.77 "HgN/A
9:00 am54 °FPassing clouds.6 mph77%29.77 "HgN/A
8:30 am54 °FSunny.3 mph82%29.77 "Hg10 mi
8:00 am55 °FSunny.2 mph67%29.77 "Hg10 mi
7:30 am54 °FPassing clouds.5 mph77%29.77 "HgN/A
6:30 am52 °FClear.6 mph82%29.74 "Hg10 mi
5:30 am52 °FPassing clouds.5 mph88%29.74 "HgN/A
5:00 am52 °FClear.1 mph88%29.77 "Hg10 mi
4:30 am52 °FClear.3 mph88%29.77 "Hg10 mi
3:30 am52 °FClear.No wind82%29.77 "Hg10 mi
3:00 am54 °FClear.1 mph77%29.77 "Hg10 mi
2:30 am55 °FClear.3 mph72%29.77 "Hg10 mi
2:00 am54 °FClear.3 mph77%29.77 "Hg10 mi
1:30 am54 °FClear.No wind88%29.77 "Hg10 mi
Weather by CustomWeather, © 2017

See weather overviewHow to use our weather pages